CTS DEB (ARRAY COVER), 39688

Orbit data source: Space-Track

CTS DEB (ARRAY COVER), 39688 is space debris in GEO originally from a launch on Sat, 17 Jan 1976 UTC launched from the Air Force Eastern Test Range (AFETR). Debris objects in space refer to the collection of defunct objects orbiting the Earth. Examples of debris include non-operational satellites, rocket bodies, and fragments generated from explosions, collisions, or faulty payload assembly.

Loading next visibility...
CTS DEB (ARRAY COVER) details
Identifier
39688, 1976-004E
Orbit
GEO
Last TLE update11 hours ago
Origin
Flag of CACRC (CA)
ManufacturerCRC
MissionSpacecraft
Bus & MotorUnknown
MassWet unknown, 4 kg dry
Launch date (UTC)
1976-01-17 (49 years ago)
Launch vehicleUnknown
Launch site
Air Force Eastern Test Range (AFETR)
Object type
Payload
Rocket body
Debris
Shape & HBRBox, 1.8 m
Radar Cross Section1.800 m², Medium (>0.1 m² and < 1m²)

Expand to show TLE details & history

TLE from 11 hours ago
0 CTS DEB (ARRAY COVER)
1 39688U 76004E   24361.22528613 -.00000128  00000-0  00000-0 0  9998
2 39688   4.6248 275.1886 0025481 176.8985 352.0743  1.00234001 37387
Epoch: 2024-12-26T05:24Z
Definitive object data (Epoch: 2024-12-26T05:24:24.721Z)
Latitude0.91085°
Longitude-92.16887°
Altitude35,689.657 km
Speed3.082 km/s
True Right ascension05h 36m 34s
True Declination0° 54' 36"
Sunlit
Object was in daylight at TLE epoch
Visualization TLE readout
Latitude-1.89754°
Longitude75.02384°
Altitude35,897.873 km
Speed3.067 km/s
Apparent Right ascension16h 52m 06s
Apparent Declination-8° 17' 55"
Sunlit
Object is in daylight
Visualization observer readout
Local Sidereal Time15:53:05
Azimuth160.827° S
Elevation39.89°
Doppler factor1
Orbital elements
Apogee altitude35,905.72 km
Perigee altitude35,690.781 km
Semi-major axis42,176.387 km
Eccentricity0.0025481
Inclination4.6248°
RAAN275.1886°
Arg. of periapsis176.8985°
True anomaly352.03391°
Mean anomaly352.0743°
Eccentric anomaly352.05412°
Mean motion0.25058 °/min
BSTARUnknown
Orbital period1436.69 mins
Loading historical data...
39688 neighbors
Authenticating...
Loading maneuver chart data...
Loading historical data...
Loading historical data...
Loading historical data...
Loading historical data...
Loading historical data...
Loading historical data...
Loading historical data...

CTS DEB (ARRAY COVER) Visibility forecast

Observer location: undefined°, undefined

Span
Click to sort rows by Start time (UTC) header in descending order
Start Az.
Max El. time (UTC)
Max El. Az.
Max El.
End time (UTC)
End Az.
1440 mins2024-12-26 16:30:54.584Z160.834° S2024-12-27 00:08:54.584Z158.924° S36.197°2024-12-27 16:30:54.584Z161.012° S
|